COSMOS 1867

Satellite information

Favourite Embed

Satellite Type and Status

PAYLOADIN ORBIT

Key statistics

Satellite COSMOS 1867 at a glance.

Uptime

13875

Days in orbit

Revolutions

≈ 14.3

Per day

Orbit

LEO

Low Earth Orbit

Inclination

65.0

Latest

Satellite identification and parameters

Extended collection of information and parameters for COSMOS 1867.

Object identification

Identified? True

Debris? False

Object name: COSMOS 1867

International designator: 1987-060A

Object number (NORAD): 18187

Object ID (CCSDS): 18187

Country: COMMONWEALTH OF INDEPENDENT STATES (CIS)

Current information (Y/N): Y

RCS size: LARGE

Orbital parameters

Period: 100.597 minutes

Inclination: 65.0113 deg

SMA: 7165.013 km

Apoapsis: 797.977 km

Periapsis: 775.779 km

RAAN: 281.536 deg

Eccentricy: 0.001549

Argument of periapsis: 258.9239 deg

Mean anomaly: 101.0104 deg

Mean motion: 14.31453643 rev/day

Mean motion (dot): -0.0000006 rev/day2

B* drag term: 0.00001519 1/REarth

Two-line elements (TLE)

Creation date: July 4, 2025, 6:39 p.m.

Reference frame: TEME

Reference center: EARTH

Epoch: July 4, 2025, 1:37 p.m. UTC

TLE line 0: 0 COSMOS 1867

TLE line 1: 1 18187U 87060A 25185.56798106 -.00000060 00000-0 15190-4 0 9996

TLE line 2: 2 18187 65.0113 281.5360 0015490 258.9239 101.0104 14.31453643984412

Live tracking on map

Real-time ground track for satellite COSMOS 1867.

In-orbit conjunctions

A list of the most updated potential collisions computed for object COSMOS 1867.

Target Orbit TCA Probability of collision Miss distance Type
CZ-6A DEB SSO 2025-04-26 05:47:34 0.0001434636 138.0 (m) DEBRIS
CZ-6A DEB LEO 2025-04-14 14:14:09 0.0005021498 699.0 (m) DEBRIS
IRIDIUM 33 DEB LEO 2025-03-16 12:22:14 0.0001177758 596.0 (m) DEBRIS
CZ-4 DEB SSO 2025-03-10 14:32:09 0.0001300866 287.0 (m) DEBRIS
NOAA 16 DEB SSO 2025-01-24 18:09:55 0.0008732706 51.0 (m) DEBRIS

Associated space launch

Nuclear-powered magnetospheric research satellite

COSMOS 1867 was lifted into orbit during the mission ‘Tsiklon-2 | Plasma-A 2’, on board a Tsiklon-2 space rocket.

The launch took place on July 10, 1987, 3:35 p.m. from 90.

For more information about the launch, click the button.

Launch to space Tsiklon-2 | Plasma-A 2
Tsiklon-2 | Plasma-A 2

Agency: N/A

Status: Launch Successful

Launch date: July 10, 1987, 3:35 p.m. UTC

Rocket: Tsiklon-2

Launch pad: 90

Location: Baikonur Cosmodrome, Republic of Kazakhstan

...

Latest news about this satellite

There are no fresh news available about this satellite. Check back as we update our databases every day.


Newsletter sign-up

Weekly statistics, charts and insights to help you stay on top of the space industry.